Tracking 23885 objects as of 28-Nov-2021
HD Live streaming from Space Station
objects crossing your sky now

SPACEBEE-86

Track SPACEBEE-86 now!
10-day predictions


NORAD ID: 47704
Int'l Code: 2021-015F
Perigee: 491.9 km
Apogee: 506.9 km
Inclination: 97.4 °
Period: 94.5 minutes
Semi major axis: 6870 km
RCS: Unknown
Launch date: February 28, 2021
Source: United States (US)
Launch site: SRIHARIKOTA (SRI)
aabbcc
Your satellite tracking list
Your tracking list is empty




NASA's NSSDC Master Catalog

Two Line Element Set (TLE):
1 47704U 21015F   21331.66825379  .00008725  00000-0  35705-3 0  9992
2 47704  97.4393  44.6428 0010869  67.1925 293.0460 15.24510743 41428
Source of the keplerian elements: AFSPC